Find Starlink 35296

NORAD ID: 65801 Int'l Des: 2025-218 Owner: SPXS Country: US Constellation: starlink operational
LEOCIRCULARRETROGRADESSO

当前视图

正在加载3D地球...

关于 Starlink 35296

正在加载描述...

即将过境

Passes for default location (London). Set your location on the main map for personalized predictions.

高度历史

Loading altitude history...

两行轨道根数

1 65801U 25218L 26151.49893994 .00008898 00000-0 61970-3 0 9997
2 65801 97.4243 14.1143 0001550 90.8471 269.2933 15.05666279 37433
Epoch: May 31, 2026 • Age: 11 hours

当前状态

高度 554.9 km
速度 7.59 km/s
星下点 42.09°N, 128.48°E
发射日期 Sep 26, 2025
运行时间 0.6 years
类型 internet

技术详情

分类 Payload
质量 575.00 kg
干质量 530.00 kg
总质量 575.00 kg
长度 0.30 m
直径 4.10 m
跨度 29.00 m
形状 Box + pan
制造商 SPXS
平台类型 Starlink V2MO
阶段状态 In Orbit
所有者/国家 SPXS/US

Most Searched